| time (UTC) | temp F | wind direction | speed knots | gust knots | rain 1hr in | rain 24hr in | rain mn in | humidity % | barometer mb |
| 20260504001038 | 48 | 162 | 0.0 | 0.0 | 0.00 | 0.00 | 0.00 | 68 | 1322.4 |
| 20260503234026 | 49 | 198 | 0.0 | 0.0 | 0.00 | 0.00 | 0.00 | 70 | 1322.5 |
| 20260503231025 | 50 | 162 | 0.0 | 0.0 | 0.00 | 0.00 | 0.00 | 68 | 1322.7 |
| 20260503224014 | 50 | 180 | 0.0 | 0.0 | 0.00 | 0.00 | 0.00 | 68 | 1322.6 |
| 20260503221013 | 51 | 216 | 0.0 | 0.0 | 0.00 | 0.00 | 0.00 | 64 | 1322.7 |
| 20260503214013 | 52 | 174 | 0.0 | 0.0 | 0.00 | 0.00 | 0.00 | 63 | 1322.7 |
| 20260503211013 | 53 | 174 | 0.0 | 0.0 | 0.00 | 0.00 | 0.00 | 63 | 1322.6 |
| 20260503204001 | 55 | 166 | 0.0 | 0.0 | 0.00 | 0.00 | 0.00 | 59 | 1322.6 |
| 20260503200948 | 57 | 166 | 0.0 | 0.0 | 0.00 | 0.00 | 0.00 | 55 | 1322.5 |
| 20260503193936 | 58 | 186 | 0.0 | 0.0 | 0.00 | 0.00 | 0.00 | 53 | 1322.6 |
| 20260503190923 | 59 | 186 | 0.0 | 0.0 | 0.00 | 0.00 | 0.00 | 51 | 1322.5 |
| 20260503183923 | 61 | 204 | 0.0 | 0.0 | 0.00 | 0.00 | 0.00 | 49 | 1322.4 |
| 20260503180923 | 64 | 186 | 1.7 | 1.7 | 0.00 | 0.00 | 0.00 | 46 | 1322.2 |
| 20260503173912 | 68 | 166 | 1.7 | 1.7 | 0.00 | 0.00 | 0.00 | 40 | 1322.1 |
| 20260503170858 | 71 | 164 | 1.7 | 1.7 | 0.00 | 0.00 | 0.00 | 38 | 1322.0 |
| 20260503150820 | 77 | 197 | 1.7 | 1.7 | 0.00 | 0.00 | 0.00 | 28 | 1322.5 |
| 20260503130755 | 77 | 145 | 1.7 | 1.7 | 0.00 | 0.00 | 0.00 | 26 | 1323.9 |
| 20260503110717 | 76 | 125 | 4.3 | 5.2 | 0.00 | 0.00 | 0.00 | 29 | 1325.0 |
| 20260503080602 | 70 | 164 | 5.2 | 5.2 | 0.00 | 0.00 | 0.00 | 36 | 1326.3 |
| 20260503070602 | 67 | 141 | 3.5 | 3.5 | 0.00 | 0.00 | 0.00 | 42 | 1326.4 |
| 20260503053513 | 55 | 161 | 0.0 | 0.0 | 0.00 | 0.00 | 0.00 | 57 | 1326.6 |
| 20260503050512 | 51 | 126 | 0.0 | 0.0 | 0.00 | 0.00 | 0.00 | 66 | 1326.8 |
| 20260503043500 | 46 | 142 | 0.0 | 0.0 | 0.00 | 0.00 | 0.00 | 71 | 1326.8 |
| 20260503040447 | 41 | 162 | 0.0 | 0.0 | 0.00 | 0.00 | 0.00 | 84 | 1326.7 |
| 20260503033447 | 40 | 174 | 0.0 | 0.0 | 0.00 | 0.00 | 0.00 | 83 | 1326.8 |
| 20260503030447 | 41 | 198 | 0.0 | 0.0 | 0.00 | 0.00 | 0.00 | 84 | 1326.7 |
| 20260503023434 | 41 | 180 | 0.0 | 0.0 | 0.00 | 0.00 | 0.00 | 82 | 1326.8 |
| 20260503020422 | 42 | 156 | 0.0 | 0.0 | 0.00 | 0.00 | 0.00 | 82 | 1326.9 |
| 20260503013410 | 42 | 180 | 0.0 | 0.0 | 0.00 | 0.00 | 0.00 | 82 | 1327.0 |
| 20260503010357 | 44 | 168 | 0.0 | 0.0 | 0.00 | 0.00 | 0.00 | 79 | 1326.9 |
| 20260503003345 | 44 | 186 | 0.0 | 0.0 | 0.00 | 0.00 | 0.00 | 79 | 1327.0 |